FW4445 Weather Reports


time (UTC)temp
C
wind
direction
speed
KPH
gust
KPH
rain 1hr
cm
rain 24hr
cm
rain mn
cm
humidity
%
barometer
mb
20260507023516 13 0 0.0 0.0 0.00 1.07 0.00 97 1011.9
20260507023016 13 0 0.0 0.0 0.00 1.07 0.00 97 1012.1
20260507022517 13 0 0.0 0.0 0.00 1.07 0.00 97 1012.0
20260507022015 13 0 0.0 0.0 0.00 1.07 0.00 97 1011.9
20260507021515 13 0 0.0 0.0 0.00 1.07 0.00 97 1012.0
20260507021016 13 0 0.0 0.0 0.00 1.07 0.00 97 1011.9
20260507020015 13 0 0.0 0.0 0.00 1.07 0.00 97 1011.8
20260507015516 14 0 0.0 0.0 0.00 1.07 0.00 97 1011.7
20260507015017 14 0 0.0 0.0 0.00 1.07 0.00 97 1012.0
20260507014515 13 0 0.0 0.0 0.00 1.07 0.00 97 1012.0
20260507014015 13 0 0.0 0.0 0.00 1.07 0.00 97 1011.9
20260507013516 13 0 0.0 0.0 0.00 1.07 0.00 97 1012.1
20260507013016 14 0 0.0 0.0 0.00 1.07 0.00 97 1012.0
20260507012515 14 0 0.0 0.0 0.00 1.07 0.00 97 1011.9
20260507012015 14 0 0.0 0.0 0.00 1.07 0.00 97 1012.0
20260507011517 14 0 0.0 0.0 0.00 1.07 0.00 97 1012.2
20260507010515 14 0 0.0 0.0 0.00 1.07 0.00 97 1011.9
20260507005518 14 0 0.0 0.0 0.00 1.07 0.00 97 1012.0
20260507005015 14 0 0.0 0.0 0.00 1.07 0.00 97 1012.0
20260507004515 14 0 0.0 0.0 0.00 1.07 0.00 96 1011.9
20260507004019 14 0 0.0 0.0 0.00 1.07 0.00 96 1012.0
20260507003515 14 0 0.0 0.0 0.00 1.07 0.00 96 1011.8
20260507003016 14 0 0.0 0.0 0.00 1.07 0.00 96 1012.0
20260507002518 14 0 0.0 0.0 0.00 1.07 0.00 96 1012.2
20260507002015 14 0 0.0 0.0 0.00 1.07 0.00 96 1012.0
20260507001519 15 0 0.0 0.0 0.00 1.07 0.00 96 1012.0
20260507001018 15 0 0.0 0.0 0.00 1.07 0.00 96 1011.9
20260507000516 15 0 0.0 0.0 0.00 1.07 0.00 96 1012.2
20260507000016 15 0 0.0 0.0 0.00 1.07 0.00 96 1012.2
20260506235517 15 0 0.0 0.0 0.00 1.07 0.00 96 1012.0
20260506234518 15 0 0.0 0.0 0.00 1.07 0.00 96 1012.3
20260506234015 15 0 0.0 0.0 0.00 1.07 0.00 96 1012.2
20260506233515 15 68 0.0 3.2 0.00 1.07 0.00 96 1012.1
20260506233019 15 75 0.0 3.2 0.00 1.07 0.00 96 1012.3
20260506232515 15 75 0.0 3.2 0.00 1.07 0.00 96 1012.2
20260506232016 15 0 0.0 0.0 0.00 1.07 0.00 96 1012.2
20260506231518 15 0 0.0 0.0 0.00 1.07 0.00 96 1012.2
20260506231015 15 0 0.0 0.0 0.00 1.07 0.00 96 1012.2
20260506230514 14 90 0.0 3.2 0.00 1.07 0.00 96 1012.3
20260506225516 14 0 0.0 0.0 0.00 1.07 0.00 95 1012.3
20260506224518 14 0 0.0 0.0 0.00 1.07 0.00 95 1012.3
20260506224015 14 0 0.0 0.0 0.00 1.07 0.00 95 1012.5
20260506223515 14 0 0.0 0.0 0.00 1.07 0.00 95 1012.5
20260506223018 14 0 0.0 0.0 0.00 1.07 0.00 95 1012.2
20260506222515 14 90 0.0 3.2 0.00 1.07 0.00 95 1012.3
20260506222016 14 86 0.0 3.2 0.00 1.07 0.00 95 1012.2
20260506221517 14 78 0.0 3.2 0.00 1.07 0.00 95 1012.3
20260506221015 14 68 0.0 3.2 0.00 1.07 0.00 95 1012.2
20260506220515 14 0 0.0 0.0 0.00 1.07 0.00 96 1012.2
20260506220028 14 0 0.0 0.0 0.00 1.07 0.00 96 1012.3
20260506215514 14 0 0.0 0.0 0.00 1.07 1.07 96 1012.3
20260506215015 14 0 0.0 0.0 0.00 1.07 1.07 96 1012.4
20260506214516 14 0 0.0 0.0 0.00 1.07 1.07 96 1012.2
20260506214016 14 0 0.0 0.0 0.00 1.07 1.07 96 1012.5
20260506213518 14 0 0.0 0.0 0.00 1.07 1.07 96 1012.3
20260506213018 14 0 0.0 0.0 0.00 1.07 1.07 96 1012.2
20260506212518 14 0 0.0 0.0 0.00 1.07 1.07 96 1012.2
20260506212016 14 0 0.0 0.0 0.00 1.09 1.07 96 1012.4
20260506211516 14 0 0.0 0.0 0.00 1.09 1.07 96 1012.5
20260506211016 14 0 0.0 0.0 0.00 1.09 1.07 96 1012.4
20260506210515 14 0 0.0 0.0 0.00 1.12 1.07 96 1012.4
20260506205516 14 0 0.0 0.0 0.00 1.12 1.07 96 1012.4
20260506205016 14 248 0.0 3.2 0.00 1.12 1.07 96 1012.6
20260506204515 14 232 0.0 3.2 0.00 1.12 1.07 96 1012.5
20260506204015 14 236 0.0 4.8 0.00 1.12 1.07 96 1012.6
20260506203515 14 238 0.0 4.8 0.00 1.12 1.07 96 1012.4
20260506203016 14 225 0.0 3.2 0.00 1.12 1.07 96 1012.3
20260506202514 15 0 0.0 0.0 0.00 1.12 1.07 96 1012.3
20260506202015 15 0 0.0 0.0 0.00 1.17 1.07 97 1012.2
20260506201515 15 0 0.0 0.0 0.00 1.17 1.07 97 1012.1
20260506201016 15 0 0.0 0.0 0.00 1.19 1.07 96 1012.6
20260506200515 15 0 0.0 0.0 0.00 1.19 1.07 96 1012.1
20260506200016 15 248 0.0 3.2 0.00 1.19 1.07 96 1012.4
20260506195515 15 249 0.0 3.2 0.00 1.22 1.07 96 1012.2
20260506194514 15 181 0.0 3.2 0.00 1.24 1.07 96 1012.0
20260506194015 15 0 0.0 0.0 0.00 1.24 1.07 96 1012.0
20260506193515 15 229 0.0 3.2 0.00 1.24 1.07 96 1011.9
20260506193016 15 246 0.0 3.2 0.00 1.24 1.07 96 1011.8
20260506192016 15 232 1.6 12.9 0.00 1.24 1.07 96 1011.6
20260506191515 15 233 3.2 12.9 0.00 1.24 1.07 96 1011.6
20260506191016 15 237 3.2 9.7 0.00 1.24 1.07 96 1011.5
20260506190515 15 244 3.2 9.7 0.00 1.24 1.07 96 1011.3
20260506190016 15 244 1.6 9.7 0.00 1.27 1.07 96 1011.3
20260506185518 15 258 1.6 4.8 0.00 1.30 1.07 96 1011.3
20260506185016 15 277 1.6 8.0 0.00 1.30 1.07 96 1011.2
20260506184515 15 250 1.6 8.0 0.00 1.30 1.07 96 1011.3
20260506184017 15 245 1.6 8.0 0.00 1.30 1.07 96 1011.4
20260506182517 15 213 1.6 8.0 0.00 1.30 1.07 96 1011.2
20260506182015 15 227 1.6 8.0 0.00 1.30 1.07 96 1011.4
20260506181515 15 293 0.0 4.8 0.00 1.30 1.07 96 1011.3
20260506181018 15 259 1.6 8.0 0.00 1.30 1.07 96 1011.4
20260506180516 15 248 1.6 9.7 0.00 1.30 1.07 96 1011.3
20260506180019 15 235 1.6 9.7 0.00 1.30 1.07 96 1011.0
20260506175516 15 224 1.6 9.7 0.00 1.30 1.07 96 1011.1
20260506174515 15 244 1.6 9.7 0.00 1.30 1.07 96 1011.3
20260506174016 15 244 1.6 9.7 0.00 1.30 1.07 96 1011.2
20260506173515 15 253 1.6 9.7 0.00 1.30 1.07 96 1011.3
20260506173015 15 253 1.6 9.7 0.00 1.30 1.07 96 1011.2
20260506172515 15 246 1.6 8.0 0.00 1.30 1.07 96 1010.8
20260506172015 15 245 1.6 8.0 0.00 1.30 1.07 96 1010.9
20260506171515 15 251 1.6 12.9 0.00 1.30 1.07 96 1011.1
20260506170515 15 237 3.2 9.7 0.00 1.30 1.07 96 1010.7
20260506170019 15 241 3.2 12.9 0.00 1.30 1.07 96 1010.9
20260506165515 15 246 3.2 12.9 0.00 1.32 1.07 96 1010.8
20260506165015 15 246 3.2 16.1 0.03 1.32 1.07 96 1010.9
20260506164515 15 245 3.2 16.1 0.03 1.32 1.07 96 1010.8
20260506164015 15 244 1.6 14.5 0.08 1.32 1.07 96 1010.7
20260506163515 15 245 1.6 9.7 0.08 1.32 1.07 96 1010.8
20260506163015 15 238 1.6 9.7 0.08 1.32 1.07 95 1010.7
20260506162515 15 241 1.6 9.7 0.10 1.32 1.07 95 1010.9
20260506162015 15 252 3.2 12.9 0.15 1.32 1.07 95 1010.9
20260506161515 15 245 3.2 12.9 0.18 1.32 1.07 95 1011.1
20260506161015 15 230 3.2 12.9 0.18 1.32 1.07 95 1010.9
20260506160016 15 250 4.8 14.5 0.18 1.32 1.07 95 1010.9
20260506155515 15 244 4.8 14.5 0.18 1.32 1.07 95 1010.8
20260506155019 15 225 4.8 17.7 0.15 1.30 1.04 95 1011.0
20260506154519 15 213 3.2 17.7 0.15 1.30 1.04 95 1010.8
20260506154015 16 254 1.6 8.0 0.08 1.24 0.99 95 1010.6
20260506153515 16 248 3.2 9.7 0.08 1.24 0.99 94 1011.0
20260506153015 16 264 1.6 9.7 0.08 1.24 0.99 94 1010.9
20260506152016 16 254 1.6 9.7 0.03 1.22 0.94 93 1011.1
20260506151016 16 246 0.0 9.7 0.00 1.22 0.91 93 1010.8
20260506150015 16 319 0.0 4.8 0.00 1.22 0.91 93 1011.0
20260506145515 16 301 0.0 4.8 0.00 1.22 0.91 93 1011.0
20260506145015 16 48 0.0 3.2 0.00 1.22 0.91 93 1011.0
20260506144516 16 127 0.0 4.8 0.00 1.22 0.91 93 1010.9
20260506144021 16 257 1.6 8.0 0.00 1.24 0.91 93 1011.0
20260506143514 16 271 1.6 8.0 0.00 1.24 0.91 93 1011.2
20260506143019 16 284 0.0 4.8 0.00 1.24 0.91 93 1011.4
20260506142515 16 293 1.6 8.0 0.00 1.27 0.91 93 1011.3
20260506142015 16 283 1.6 9.7 0.03 1.30 0.91 93 1011.1
20260506141515 16 263 1.6 9.7 0.03 1.30 0.91 92 1011.4
20260506140015 16 246 0.0 8.0 0.03 1.32 0.91 93 1011.5
20260506135516 16 260 0.0 4.8 0.03 1.32 0.91 93 1011.5
20260506135017 16 252 1.6 12.9 0.03 1.35 0.91 93 1011.6
20260506134516 16 252 3.2 12.9 0.03 1.37 0.91 92 1011.6
20260506134017 16 264 1.6 12.9 0.03 1.42 0.91 92 1011.6
20260506133515 16 247 1.6 14.5 0.03 1.47 0.91 93 1011.5
20260506133015 16 245 3.2 14.5 0.03 1.47 0.91 93 1011.8
20260506132519 16 242 3.2 12.9 0.03 1.50 0.91 93 1011.6
20260506132016 16 247 4.8 12.9 0.00 1.50 0.86 93 1011.7
20260506131515 16 250 4.8 14.5 0.00 1.55 0.86 93 1011.8
20260506131015 16 254 4.8 14.5 0.00 1.57 0.86 92 1012.0
20260506130514 16 269 4.8 14.5 0.00 1.60 0.86 93 1011.9
20260506130016 16 248 6.4 14.5 0.00 1.60 0.86 93 1012.0
20260506125015 16 252 8.0 20.9 0.00 1.63 0.86 92 1012.0
20260506124514 16 255 8.0 16.1 0.00 1.68 0.86 91 1011.9
20260506124014 16 259 8.0 16.1 0.00 1.68 0.86 90 1011.8
20260506123515 16 255 6.4 16.1 0.00 1.68 0.86 91 1011.9
20260506122015 16 258 4.8 14.5 0.00 1.68 0.86 91 1011.9
20260506121016 16 251 3.2 12.9 0.03 1.68 0.86 91 1011.8
20260506120516 16 225 3.2 12.9 0.03 1.68 0.86 91 1011.8
20260506120015 16 224 4.8 16.1 0.03 1.68 0.86 91 1011.9
20260506115017 16 263 6.4 16.1 0.03 1.68 0.86 92 1011.8
20260506114515 16 264 4.8 12.9 0.03 1.68 0.86 94 1011.9
20260506114015 16 269 3.2 12.9 0.03 1.68 0.86 93 1012.0
20260506113516 16 260 3.2 12.9 0.05 1.68 0.86 94 1012.1
20260506112515 16 261 3.2 9.7 0.05 1.68 0.86 94 1012.1
20260506111518 16 249 4.8 12.9 0.03 1.68 0.84 94 1012.1
20260506111015 16 258 3.2 9.7 0.10 1.68 0.84 94 1012.1
20260506110516 16 244 4.8 17.7 0.10 1.68 0.84 94 1012.3
20260506110019 16 262 6.4 17.7 0.10 1.68 0.84 94 1012.2
20260506105515 16 265 4.8 14.5 0.10 1.68 0.84 95 1012.3
20260506105018 15 244 3.2 12.9 0.10 1.68 0.84 95 1012.3
20260506104514 16 231 0.0 8.0 0.10 1.68 0.84 95 1012.4
20260506104015 16 232 0.0 4.8 0.10 1.68 0.84 95 1012.3
20260506103515 16 254 0.0 4.8 0.08 1.63 0.81 95 1012.5
20260506103015 16 260 0.0 4.8 0.08 1.63 0.81 95 1012.3
20260506102015 15 248 1.6 8.0 0.10 1.63 0.81 95 1012.5
20260506100015 16 178 0.0 4.8 0.03 1.55 0.74 94 1012.5
20260506095518 16 254 0.0 4.8 0.03 1.55 0.74 94 1012.6
20260506095016 16 203 0.0 4.8 0.03 1.55 0.74 94 1012.8
20260506094514 16 203 0.0 4.8 0.03 1.55 0.74 94 1012.7
20260506094015 15 57 0.0 4.8 0.03 1.55 0.74 94 1012.7
20260506093515 15 62 0.0 8.0 0.03 1.55 0.74 94 1012.7
20260506093015 15 71 0.0 8.0 0.03 1.55 0.74 94 1012.7
20260506092515 15 76 1.6 8.0 0.00 1.52 0.71 93 1012.7
20260506092015 16 75 0.0 8.0 0.00 1.52 0.71 93 1012.8
20260506091515 16 48 0.0 8.0 0.00 1.52 0.71 93 1012.7
20260506090016 16 19 1.6 8.0 0.00 1.52 0.71 92 1012.5
20260506084515 16 334 1.6 9.7 0.03 1.52 0.71 95 1012.7
20260506083017 15 82 1.6 8.0 0.03 1.52 0.71 97 1012.4
20260506082515 16 76 0.0 8.0 0.03 1.52 0.71 97 1012.2
20260506082018 16 268 1.6 8.0 0.05 1.52 0.71 97 1012.2
20260506081516 15 278 0.0 8.0 0.05 1.52 0.71 97 1012.3
20260506081018 16 0 0.0 0.0 0.05 1.52 0.71 97 1012.2
20260506073514 15 79 1.6 12.9 0.03 1.50 0.69 97 1012.0
20260506073015 14 76 1.6 12.9 0.03 1.50 0.69 97 1012.0
20260506072514 14 74 3.2 9.7 0.05 1.50 0.69 97 1012.2
20260506072018 14 78 3.2 9.7 0.10 1.47 0.66 97 1012.3
20260506071514 14 92 1.6 9.7 0.15 1.47 0.66 97 1012.2
20260506071015 14 82 1.6 12.9 0.23 1.47 0.66 97 1012.4
20260506070514 14 71 4.8 12.9 0.28 1.47 0.66 97 1012.3
20260506062515 14 84 1.6 9.7 0.61 1.45 0.61 96 1012.6
20260506062017 14 79 3.2 9.7 0.53 1.35 0.53 96 1012.4
20260506061517 14 71 3.2 9.7 0.48 1.30 0.48 96 1012.4
20260506061018 14 72 3.2 9.7 0.43 1.24 0.46 96 1012.2
20260506051018 14 70 1.6 9.7 0.00 0.81 0.00 95 1012.5
20260506050514 14 74 1.6 9.7 0.00 0.81 0.00 95 1012.4
20260506045015 14 65 3.2 9.7 0.00 0.81 0.00 96 1012.4
20260506044514 14 66 1.6 8.0 0.00 0.81 0.00 96 1012.4
20260506044016 14 60 1.6 4.8 0.00 0.81 0.00 96 1012.4
20260506043514 13 70 1.6 9.7 0.00 0.81 0.00 96 1012.4
20260506043015 13 71 3.2 9.7 0.00 0.81 0.00 96 1012.5
20260506042515 13 62 3.2 9.7 0.00 0.81 0.00 96 1012.5
20260506042015 13 56 1.6 9.7 0.00 0.81 0.00 96 1012.3
20260506041514 13 66 1.6 4.8 0.00 0.81 0.00 97 1012.4
20260506040015 13 57 0.0 4.8 0.00 0.81 0.00 97 1012.5
20260506035513 13 65 0.0 4.8 0.00 0.81 0.00 97 1012.6
20260506035015 13 66 1.6 4.8 0.00 0.81 0.00 97 1013.0
20260506034014 13 72 1.6 9.7 0.00 0.81 0.00 97 1012.5
20260506033514 13 73 0.0 4.8 0.00 0.81 0.00 97 1012.7
20260506033015 13 67 1.6 4.8 0.00 0.81 0.00 96 1012.5
20260506032514 13 68 1.6 4.8 0.00 0.81 0.00 96 1012.9
20260506032015 13 70 3.2 9.7 0.00 0.81 0.00 96 1012.6
20260506031514 13 70 1.6 9.7 0.00 0.81 0.00 96 1013.0
20260506031015 13 63 0.0 4.8 0.00 0.81 0.00 96 1012.6
20260506030514 13 68 0.0 8.0 0.00 0.81 0.00 96 1012.7
20260506030015 13 71 0.0 8.0 0.00 0.81 0.00 96 1013.1
20260506025513 13 68 1.6 4.8 0.00 0.81 0.00 96 1013.0
20260506025015 13 70 1.6 8.0 0.00 0.81 0.00 96 1013.0